FW0788 Weather Reports


time (UTC)temp
F
wind
direction
speed
knots
gust
knots
rain 1hr
in
rain 24hr
in
rain mn
in
humidity
%
barometer
mb
20210927072514 54 168 0.9 6.1 0.00 0.00 0.00 76 1017.2
20210927072014 54 128 0.0 6.1 0.00 0.00 0.00 76 1017.2
20210927071525 55 245 0.0 6.1 0.00 0.00 0.00 76 1017.2
20210927071014 55 232 0.9 6.1 0.00 0.00 0.00 76 1017.1
20210927070513 55 163 1.7 7.0 0.00 0.00 0.00 75 1017.2
20210927070021 55 252 0.9 7.0 0.00 0.00 0.00 75 1017.1
20210927065513 55 242 2.6 7.0 0.00 0.00 0.00 74 1017.2
20210927065020 55 208 2.6 8.7 0.00 0.00 0.00 73 1017.2
20210927064524 55 237 0.9 7.8 0.00 0.00 0.00 73 1017.2
20210927064013 55 76 0.0 5.2 0.00 0.00 0.00 72 1017.1
20210927063513 55 143 0.9 7.0 0.00 0.00 0.00 73 1017.1
20210927063036 55 281 1.7 9.6 0.00 0.00 0.00 72 1017.1
20210927062012 56 90 0.9 6.1 0.00 0.00 0.00 73 1017.1
20210927061541 56 227 1.7 7.8 0.00 0.00 0.00 73 1017.2
20210927061037 56 241 2.6 7.8 0.00 0.00 0.00 72 1017.1
20210927060511 56 237 0.9 6.1 0.00 0.00 0.00 73 1017.1
20210927060009 56 167 0.9 7.0 0.00 0.00 0.00 73 1017.2
20210927055509 56 147 2.6 9.6 0.00 0.00 0.00 72 1017.2
20210927055008 56 113 1.7 9.6 0.00 0.00 0.00 72 1017.2
20210927054520 56 130 1.7 7.0 0.00 0.00 0.00 73 1017.3
20210927054007 56 190 2.6 7.0 0.00 0.00 0.00 72 1017.2
20210927053511 56 95 2.6 7.0 0.00 0.00 0.00 70 1017.1
20210927053008 57 176 2.6 7.8 0.00 0.00 0.00 69 1017.2
20210927052511 57 254 0.9 7.8 0.00 0.00 0.00 68 1017.1
20210927052007 58 156 1.7 7.0 0.00 0.00 0.00 68 1017.2
20210927051507 58 258 2.6 7.0 0.00 0.00 0.00 66 1017.3
20210927051008 59 169 2.6 7.8 0.00 0.00 0.00 65 1017.3
20210927050504 59 120 2.6 7.8 0.00 0.00 0.00 64 1017.3
20210927050005 59 109 1.7 7.0 0.00 0.00 0.00 64 1017.4
20210927045508 59 59 2.6 7.8 0.00 0.00 0.00 65 1017.4
20210927045004 58 198 1.7 7.8 0.00 0.00 0.00 65 1017.4
20210927044523 58 149 1.7 7.8 0.00 0.00 0.00 64 1017.5
20210927044008 58 159 1.7 7.0 0.00 0.00 0.00 64 1017.5
20210927043503 58 209 2.6 9.6 0.00 0.00 0.00 64 1017.6
20210927043117 58 221 4.3 9.6 0.00 0.00 0.00 64 1017.6
20210927042559 58 199 2.6 8.7 0.00 0.00 0.00 65 1017.7
20210927042100 58 150 2.6 8.7 0.00 0.00 0.00 63 1017.9
20210927041717 59 234 2.6 8.7 0.00 0.00 0.00 63 1018.0
20210927041058 59 137 3.5 8.7 0.00 0.00 0.00 62 1017.9
20210927040605 58 192 4.3 9.6 0.00 0.00 0.00 61 1018.1
20210927040122 59 264 2.6 9.6 0.00 0.00 0.00 61 1018.1
20210927035556 59 360 0.9 9.6 0.00 0.00 0.00 62 1018.1
20210927035106 59 184 2.6 7.8 0.00 0.00 0.00 60 1018.1
20210927034639 59 98 1.7 7.8 0.00 0.00 0.00 60 1018.1
20210927034125 58 136 2.6 7.8 0.00 0.00 0.00 60 1018.2
20210927033557 59 101 3.5 8.7 0.00 0.00 0.00 58 1018.3
20210927033345 59 171 4.3 8.7 0.00 0.00 0.00 57 1018.3
20210927032553 59 238 1.7 8.7 0.00 0.00 0.00 57 1018.3
20210927032052 59 88 0.0 8.7 0.00 0.00 0.00 57 1018.3
20210927031633 60 42 4.3 8.7 0.00 0.00 0.00 55 1018.3
20210927031051 60 140 1.7 7.8 0.00 0.00 0.00 56 1018.5
20210927030552 60 176 2.6 7.8 0.00 0.00 0.00 57 1018.5
20210927030145 60 178 2.6 7.0 0.00 0.00 0.00 56 1018.7
20210927025554 60 132 0.9 7.0 0.00 0.00 0.00 58 1018.8
20210927025056 59 184 1.7 8.7 0.00 0.00 0.00 56 1018.8
20210927024651 60 148 2.6 8.7 0.00 0.00 0.00 56 1018.9
20210927024102 60 132 0.9 7.0 0.00 0.00 0.00 56 1018.9
20210927023555 59 288 2.6 7.0 0.00 0.00 0.00 56 1019.0
20210927023122 59 153 4.3 7.0 0.00 0.00 0.00 58 1019.1
20210927022549 58 144 2.6 8.7 0.00 0.00 0.00 56 1019.2
20210927022046 58 146 1.7 8.7 0.00 0.00 0.00 60 1019.3
20210927021610 57 76 2.6 7.8 0.00 0.00 0.00 62 1019.4
20210927021048 57 85 0.9 3.5 0.00 0.00 0.00 66 1019.5
20210927020544 57 267 0.9 3.5 0.00 0.00 0.00 68 1019.6
20210927020051 57 215 0.9 7.8 0.00 0.00 0.00 70 1019.7
20210927015539 57 34 2.6 7.8 0.00 0.00 0.00 69 1019.8
20210927015041 56 72 0.0 3.5 0.00 0.00 0.00 71 1019.9
20210927014608 56 204 0.9 5.2 0.00 0.00 0.00 71 1019.9
20210927014034 56 251 1.7 6.1 0.00 0.00 0.00 71 1020.1
20210927013549 56 226 1.7 6.1 0.00 0.00 0.00 70 1020.2
20210927013033 56 244 1.7 4.3 0.00 0.00 0.00 71 1020.2
20210927012531 55 300 0.9 4.3 0.00 0.00 0.00 71 1020.4
20210927012028 55 240 1.7 3.5 0.00 0.00 0.00 71 1020.5
20210927011529 55 289 0.9 4.3 0.00 0.00 0.00 72 1020.6
20210927011031 54 312 1.7 4.3 0.00 0.00 0.00 74 1020.7
20210927010533 53 261 0.9 3.5 0.00 0.00 0.00 73 1020.7
20210927010028 53 302 2.6 3.5 0.00 0.00 0.00 73 1020.8
20210927005520 53 265 0.0 0.0 0.00 0.00 0.00 72 1020.9
20210927005019 53 270 0.0 0.0 0.00 0.00 0.00 73 1021.0
20210927004604 53 270 0.0 0.0 0.00 0.00 0.00 73 1021.1
20210927004017 52 229 0.0 1.7 0.00 0.00 0.00 73 1021.2
20210927003528 52 229 0.0 2.6 0.00 0.00 0.00 74 1021.2
20210927003029 52 229 0.0 3.5 0.00 0.00 0.00 74 1021.3
20210927002514 51 130 0.9 3.5 0.00 0.00 0.00 74 1021.4
20210927002029 51 86 0.0 0.0 0.00 0.00 0.00 76 1021.4
20210927001519 51 116 0.0 0.0 0.00 0.00 0.00 77 1021.5
20210927001014 50 116 0.0 0.0 0.00 0.00 0.00 78 1021.6
20210927000509 50 116 0.0 0.0 0.00 0.00 0.00 77 1021.6
20210927000011 50 116 0.0 0.0 0.00 0.00 0.00 77 1021.7
20210926235519 50 116 0.0 0.0 0.00 0.00 0.00 79 1021.7
20210926235009 50 116 0.0 0.0 0.00 0.00 0.00 78 1021.6
20210926234509 50 116 0.0 0.0 0.00 0.00 0.00 77 1021.7
20210926234009 50 116 0.0 0.0 0.00 0.00 0.00 75 1021.9
20210926233511 51 116 0.0 0.0 0.00 0.00 0.00 74 1022.0
20210926233032 51 116 0.0 0.0 0.00 0.00 0.00 73 1022.0
20210926232505 51 116 0.0 0.0 0.00 0.00 0.00 72 1022.1
20210926232005 51 116 0.0 0.9 0.00 0.00 0.00 72 1022.1
20210926231517 51 116 0.0 2.6 0.00 0.00 0.00 72 1022.1
20210926231004 51 119 0.0 1.7 0.00 0.00 0.00 74 1022.1
20210926230502 50 119 0.0 0.9 0.00 0.00 0.00 75 1022.2
20210926230003 50 269 0.0 1.7 0.00 0.00 0.00 77 1022.3
20210926225600 49 271 0.0 1.7 0.00 0.00 0.00 78 1022.4
20210926225058 49 162 0.0 2.6 0.00 0.00 0.00 79 1022.3
20210926224623 49 163 0.9 2.6 0.00 0.00 0.00 80 1022.4
20210926224059 48 179 0.0 1.7 0.00 0.00 0.00 81 1022.5
20210926223614 48 179 0.0 0.9 0.00 0.00 0.00 84 1022.5
20210926223122 48 179 0.0 1.7 0.00 0.00 0.00 85 1022.6
20210926222608 47 179 0.0 1.7 0.00 0.00 0.00 86 1022.6
20210926222058 47 179 0.0 0.0 0.00 0.00 0.00 89 1022.6
20210926221601 47 179 0.0 0.0 0.00 0.00 0.00 93 1022.6
20210926221048 46 179 0.0 0.0 0.00 0.00 0.00 94 1022.6
20210926220546 45 179 0.0 0.0 0.00 0.00 0.00 95 1022.7
20210926220117 44 179 0.0 0.0 0.00 0.00 0.00 95 1022.8
20210926215605 44 179 0.0 0.0 0.00 0.00 0.00 95 1022.8
20210926215042 43 179 0.0 0.0 0.00 0.00 0.00 95 1022.9
20210926214645 43 179 0.0 0.0 0.00 0.00 0.00 95 1022.9
20210926214045 42 179 0.0 0.0 0.00 0.00 0.00 95 1022.9
20210926213544 42 179 0.0 0.0 0.00 0.00 0.00 95 1022.8
20210926213115 41 179 0.0 0.0 0.00 0.00 0.00 95 1022.9
20210926212535 41 179 0.0 0.0 0.00 0.00 0.00 95 1022.9
20210926212037 41 179 0.0 0.0 0.00 0.00 0.00 95 1023.0
20210926211618 40 179 0.0 0.0 0.00 0.00 0.00 95 1022.9
20210926211104 40 179 0.0 0.0 0.00 0.00 0.00 95 1022.9
20210926210530 40 179 0.0 0.0 0.00 0.00 0.00 95 1022.9
20210926210041 39 179 0.0 0.0 0.00 0.00 0.00 95 1022.8
20210926205537 39 179 0.0 0.0 0.00 0.00 0.00 95 1022.9
20210926205027 39 179 0.0 0.0 0.00 0.00 0.00 95 1022.8
20210926204604 39 179 0.0 0.0 0.00 0.00 0.00 95 1022.9
20210926204026 38 179 0.0 0.0 0.00 0.00 0.00 95 1023.0
20210926203527 38 179 0.0 0.0 0.00 0.00 0.00 95 1022.9
20210926203038 38 179 0.0 0.0 0.00 0.00 0.00 94 1023.0
20210926202526 38 179 0.0 0.0 0.00 0.00 0.00 94 1022.9
20210926202029 38 179 0.0 0.0 0.00 0.00 0.00 94 1022.9
20210926201535 38 179 0.0 0.0 0.00 0.00 0.00 94 1022.9
20210926201020 38 179 0.0 0.0 0.00 0.00 0.00 94 1022.9
20210926200525 38 179 0.0 0.0 0.00 0.00 0.00 94 1022.9
20210926200038 38 179 0.0 0.0 0.00 0.00 0.00 94 1023.0
20210926195524 38 179 0.0 0.0 0.00 0.00 0.00 94 1023.0
20210926195024 38 179 0.0 0.0 0.00 0.00 0.00 94 1023.0
20210926194613 37 179 0.0 0.0 0.00 0.00 0.00 94 1022.9
20210926194034 37 179 0.0 0.0 0.00 0.00 0.00 94 1023.0
20210926193523 37 179 0.0 0.0 0.00 0.00 0.00 94 1023.0
20210926193017 37 179 0.0 0.0 0.00 0.00 0.00 94 1022.8
20210926192521 37 179 0.0 0.0 0.00 0.00 0.00 94 1022.7
20210926192015 37 179 0.0 0.0 0.00 0.00 0.00 94 1022.7
20210926191542 37 179 0.0 0.0 0.00 0.00 0.00 94 1022.6
20210926191024 37 179 0.0 0.0 0.00 0.00 0.00 94 1022.7
20210926190513 36 179 0.0 0.0 0.00 0.00 0.00 94 1022.9
20210926190023 36 179 0.0 0.0 0.00 0.00 0.00 94 1022.8
20210926185513 36 179 0.0 0.0 0.00 0.00 0.00 94 1022.9
20210926185012 36 179 0.0 0.0 0.00 0.00 0.00 94 1022.8
20210926184520 36 179 0.0 0.0 0.00 0.00 0.00 94 1022.8
20210926184010 36 179 0.0 0.0 0.00 0.00 0.00 94 1022.9
20210926183511 36 179 0.0 0.0 0.00 0.00 0.00 94 1022.9
20210926183104 36 179 0.0 0.0 0.00 0.00 0.00 94 1023.0
20210926182512 36 179 0.0 0.0 0.00 0.00 0.00 94 1023.0
20210926182020 36 179 0.0 0.0 0.00 0.00 0.00 93 1022.9
20210926181508 36 179 0.0 0.0 0.00 0.00 0.00 93 1022.9
20210926181008 36 179 0.0 0.0 0.00 0.00 0.00 93 1023.0
20210926180507 36 179 0.0 0.0 0.00 0.00 0.00 93 1023.1
20210926180011 36 179 0.0 0.0 0.00 0.00 0.00 93 1023.2
20210926175515 36 179 0.0 0.0 0.00 0.00 0.00 93 1023.2
20210926175015 36 179 0.0 0.0 0.00 0.00 0.00 93 1023.2
20210926174515 36 179 0.0 0.0 0.00 0.00 0.00 93 1023.2
20210926174004 36 179 0.0 0.0 0.00 0.00 0.00 93 1023.2
20210926173503 37 179 0.0 0.0 0.00 0.00 0.00 93 1023.3
20210926173003 37 179 0.0 0.0 0.00 0.00 0.00 93 1023.4
20210926172500 37 179 0.0 0.0 0.00 0.00 0.00 93 1023.5
20210926172001 37 179 0.0 0.0 0.00 0.00 0.00 93 1023.5
20210926171647 37 179 0.0 0.0 0.00 0.00 0.00 93 1023.6
20210926171059 37 179 0.0 0.0 0.00 0.00 0.00 94 1023.7
20210926171005 37 179 0.0 0.0 0.00 0.00 0.00 94 1023.7
20210926170558 37 179 0.0 0.0 0.00 0.00 0.00 94 1023.8
20210926170200 38 179 0.0 0.0 0.00 0.00 0.00 94 1023.9
20210926165557 38 179 0.0 0.0 0.00 0.00 0.00 94 1024.0
20210926165112 37 179 0.0 0.0 0.00 0.00 0.00 94 1024.0
20210926164809 37 179 0.0 0.0 0.00 0.00 0.00 94 1024.0
20210926164054 37 179 0.0 0.0 0.00 0.00 0.00 94 1024.0
20210926163553 37 179 0.0 0.0 0.00 0.00 0.00 94 1024.1
20210926163317 37 179 0.0 0.0 0.00 0.00 0.00 94 1024.2
20210926162622 37 179 0.0 0.0 0.00 0.00 0.00 94 1024.3
20210926162054 37 179 0.0 0.0 0.00 0.00 0.00 94 1024.4
20210926161652 37 179 0.0 0.0 0.00 0.00 0.00 94 1024.5
20210926161049 37 179 0.0 0.0 0.00 0.00 0.00 94 1024.7
20210926160603 37 179 0.0 0.0 0.00 0.00 0.00 94 1024.7
20210926160056 37 179 0.0 0.0 0.00 0.00 0.00 94 1024.6
20210926155557 36 179 0.0 0.0 0.00 0.00 0.00 94 1024.7
20210926155110 36 179 0.0 0.0 0.00 0.00 0.00 94 1024.7
20210926154620 36 179 0.0 0.0 0.00 0.00 0.00 94 1024.8
20210926154046 36 179 0.0 0.0 0.00 0.00 0.00 94 1024.8
20210926153548 36 179 0.0 0.0 0.00 0.00 0.00 94 1024.8
20210926153130 36 179 0.0 0.0 0.00 0.00 0.00 94 1024.8
20210926152546 36 179 0.0 0.0 0.00 0.00 0.00 94 1024.8
20210926152042 35 179 0.0 0.0 0.00 0.00 0.00 94 1024.9
20210926151547 35 179 0.0 0.0 0.00 0.00 0.00 93 1024.9
20210926151041 35 179 0.0 0.0 0.00 0.00 0.00 94 1024.9
20210926150540 35 179 0.0 0.0 0.00 0.00 0.00 93 1025.1
20210926150135 35 179 0.0 0.0 0.00 0.00 0.00 93 1025.1
20210926145539 35 179 0.0 0.0 0.00 0.00 0.00 93 1025.1
20210926145038 35 179 0.0 0.0 0.00 0.00 0.00 93 1025.1
20210926144557 34 179 0.0 0.0 0.00 0.00 0.00 93 1025.1
20210926144037 34 179 0.0 0.0 0.00 0.00 0.00 93 1025.1
20210926143536 34 179 0.0 0.0 0.00 0.00 0.00 93 1025.1
20210926143136 34 179 0.0 0.0 0.00 0.00 0.00 93 1025.2
20210926142540 34 179 0.0 0.0 0.00 0.00 0.00 93 1025.2
20210926142039 33 179 0.0 0.0 0.00 0.00 0.00 93 1025.2
20210926141603 33 179 0.0 0.0 0.00 0.00 0.00 93 1025.2
20210926141118 33 179 0.0 0.0 0.00 0.00 0.00 93 1025.2
20210926140529 33 179 0.0 0.0 0.00 0.00 0.00 92 1025.2
20210926140043 33 179 0.0 0.0 0.00 0.00 0.00 92 1025.2
20210926135528 33 179 0.0 0.0 0.00 0.00 0.00 92 1025.2
20210926135034 33 179 0.0 0.0 0.00 0.00 0.00 92 1025.2
20210926134627 33 179 0.0 0.0 0.00 0.00 0.00 92 1025.2
20210926134030 33 179 0.0 0.0 0.00 0.00 0.00 92 1025.2
20210926133527 33 179 0.0 0.0 0.00 0.00 0.00 92 1025.1
20210926133030 33 179 0.0 0.0 0.00 0.00 0.00 92 1025.1
20210926132527 33 179 0.0 0.0 0.00 0.00 0.00 92 1025.1
20210926132030 33 179 0.0 0.0 0.00 0.00 0.00 92 1025.1
20210926131606 33 179 0.0 0.0 0.00 0.00 0.00 92 1025.2
20210926131029 33 179 0.0 0.0 0.00 0.00 0.00 92 1025.2
20210926130527 33 179 0.0 0.0 0.00 0.00 0.00 92 1025.3
20210926130042 33 179 0.0 0.0 0.00 0.00 0.00 92 1025.3
20210926125526 34 179 0.0 0.0 0.00 0.00 0.00 91 1025.4
20210926125026 34 179 0.0 0.0 0.00 0.00 0.00 92 1025.4
20210926124605 34 179 0.0 0.0 0.00 0.00 0.00 91 1025.5
20210926124025 34 179 0.0 0.0 0.00 0.00 0.00 91 1025.5
20210926123540 34 179 0.0 0.0 0.00 0.00 0.00 91 1025.6
20210926123026 34 179 0.0 0.0 0.00 0.00 0.00 91 1025.6
20210926122525 34 179 0.0 0.0 0.00 0.00 0.00 91 1025.6
20210926122034 34 179 0.0 0.0 0.00 0.00 0.00 91 1025.6
20210926121534 34 179 0.0 0.0 0.00 0.00 0.00 91 1025.6
20210926121032 35 179 0.0 0.0 0.00 0.00 0.00 91 1025.6
20210926120528 35 179 0.0 0.0 0.00 0.00 0.00 91 1025.7
20210926120132 35 179 0.0 0.0 0.00 0.00 0.00 91 1025.6
20210926115524 35 179 0.0 0.0 0.00 0.00 0.00 90 1025.5
20210926115024 35 179 0.0 0.0 0.00 0.00 0.00 91 1025.5
20210926114551 35 179 0.0 0.0 0.00 0.00 0.00 90 1025.5
20210926114024 35 179 0.0 0.0 0.00 0.00 0.00 90 1025.6
20210926113526 35 179 0.0 0.0 0.00 0.00 0.00 90 1025.6
20210926113046 36 179 0.0 0.0 0.00 0.00 0.00 90 1025.5
20210926112523 36 179 0.0 0.0 0.00 0.00 0.00 90 1025.5
20210926112023 36 179 0.0 0.0 0.00 0.00 0.00 90 1025.5
20210926111524 36 179 0.0 0.0 0.00 0.00 0.00 90 1025.5
20210926111023 36 179 0.0 0.0 0.00 0.00 0.00 90 1025.5
20210926110523 36 179 0.0 0.0 0.00 0.00 0.00 89 1025.4
20210926110102 36 179 0.0 0.0 0.00 0.00 0.00 89 1025.5
20210926105522 36 179 0.0 0.0 0.00 0.00 0.00 89 1025.5
20210926105042 37 179 0.0 0.0 0.00 0.00 0.00 89 1025.4
20210926104544 37 179 0.0 0.0 0.00 0.00 0.00 89 1025.4
20210926104023 37 179 0.0 0.0 0.00 0.00 0.00 88 1025.5
20210926103534 37 179 0.0 0.0 0.00 0.00 0.00 88 1025.5
20210926103032 37 179 0.0 0.0 0.00 0.00 0.00 88 1025.4
20210926102545 38 179 0.0 0.0 0.00 0.00 0.00 88 1025.4
20210926102022 38 179 0.0 0.0 0.00 0.00 0.00 88 1025.5
20210926101543 38 179 0.0 0.0 0.00 0.00 0.00 87 1025.5
20210926101040 38 179 0.0 0.0 0.00 0.00 0.00 87 1025.5
20210926100521 38 179 0.0 0.0 0.00 0.00 0.00 87 1025.4
20210926100045 39 179 0.0 0.0 0.00 0.00 0.00 87 1025.4
20210926095526 39 179 0.0 0.0 0.00 0.00 0.00 86 1025.5
20210926095020 39 179 0.0 0.0 0.00 0.00 0.00 86 1025.5
20210926094610 39 179 0.0 0.0 0.00 0.00 0.00 86 1025.5
20210926094026 40 179 0.0 0.0 0.00 0.00 0.00 85 1025.5
20210926093519 40 179 0.0 0.0 0.00 0.00 0.00 85 1025.5
20210926093034 40 179 0.0 0.0 0.00 0.00 0.00 84 1025.5
20210926092518 41 180 0.0 0.0 0.00 0.00 0.00 84 1025.5
20210926092015 41 180 0.0 0.0 0.00 0.00 0.00 83 1025.5
20210926091532 41 180 0.0 0.0 0.00 0.00 0.00 83 1025.5
20210926091013 42 180 0.0 0.0 0.00 0.00 0.00 82 1025.4
20210926090514 42 180 0.0 0.0 0.00 0.00 0.00 81 1025.2
20210926090014 43 180 0.0 0.0 0.00 0.00 0.00 80 1025.3
20210926085513 43 180 0.0 0.0 0.00 0.00 0.00 79 1025.3
20210926085017 43 180 0.0 0.0 0.00 0.00 0.00 78 1025.3
20210926084514 44 180 0.0 0.0 0.00 0.00 0.00 77 1025.3
20210926084036 44 180 0.0 0.0 0.00 0.00 0.00 76 1025.3
20210926083518 45 180 0.0 0.0 0.00 0.00 0.00 76 1025.3
20210926083014 45 180 0.0 0.0 0.00 0.00 0.00 75 1025.4
20210926082535 46 180 0.0 0.0 0.00 0.00 0.00 74 1025.3
20210926082018 46 180 0.0 0.0 0.00 0.00 0.00 73 1025.3
20210926081520 47 180 0.0 0.0 0.00 0.00 0.00 73 1025.3
20210926081012 47 180 0.0 0.0 0.00 0.00 0.00 72 1025.3
20210926080510 48 180 0.0 0.0 0.00 0.00 0.00 71 1025.3
20210926080021 48 180 0.0 0.0 0.00 0.00 0.00 70 1025.3
20210926075509 49 180 0.0 0.0 0.00 0.00 0.00 70 1025.2
20210926075009 49 180 0.0 1.7 0.00 0.00 0.00 69 1025.2
20210926074517 49 180 0.0 1.7 0.00 0.00 0.00 68 1025.2
20210926074009 49 180 0.0 2.6 0.00 0.00 0.00 68 1025.2
20210926073509 50 180 0.0 2.6 0.00 0.00 0.00 67 1025.2
20210926073027 50 157 0.9 5.2 0.00 0.00 0.00 66 1025.2